* Astronomy

Members Login
Username 
 
Password 
    Remember Me  
Post Info TOPIC: Chang Zheng-4B rocket body re-entry


L

Posts: 131433
Date:
Chang Zheng-4B rocket body re-entry
Permalink  
 


Update:
The Chang Zheng-4B rocket body re-entered the Earths atmosphere on the 18th December, 2011 @21:16  GMT  ± 16 minutes.

Inclination: 97.50°
Revolution Number: 633
Predicted Location: 3.2°S, 203.8°E



__________________


L

Posts: 131433
Date:
Permalink  
 

Update:
The Chang Zheng-4B rocket body is predicted to re-enter the Earths atmosphere on the 15th December, 2011 @ --:-- GMT  ± -- hours.

CZ-4B RB
1 37876U 11066C   11346.87712704 +.01205627 +24664-5 +54634-3 0 01027
2 37876 097.5000 062.5289 0093163 238.0796 121.1601 16.12139289005350

Period:       89.38 minutes
Inclination: 97.50°
Apogee:     307 km
Perigee:     180 km
Revolution Number: -
Predicted Location:  -



__________________


L

Posts: 131433
Date:
Permalink  
 

Update:
The Chang Zheng-4B rocket body is predicted to re-enter the Earths atmosphere on the 12th December, 2011 @ --:-- GMT  ± -- hours.

CZ-4B RB
1 37876U 11066C   11343.45463072  .00840651  24593-5  55643-3 0   874
2 37876 097.5012 058.6476 0111734 249.6069 109.3595 16.04470559  4801

Period:       89.75 minutes
Inclination: 97.50°
Apogee:     336 km
Perigee:     188 km
Revolution Number: -
Predicted Location:  -



__________________


L

Posts: 131433
Date:
Permalink  
 

A Chang Zheng-4B rocket body that was launched on the 9th November, 2011, from the Taiyaun Space Centre, for the YaoGan Weixing-12 satellite mission is predicted to re-enter the Earths atmosphere on the 7th December, 2011 @ --:-- GMT  ± -- hours.

CZ-4B RB
1 37876U 11066C   11327.57000583  .00492244  24023-5  70290-3 0   361
2 37876 097.5026 041.0025 0160741 311.2585 047.4934 15.85462633  2273

Period:       90.89 minutes
Inclination: 97.50°
Apogee:     428 km
Perigee:     208 km
Revolution Number: -
Predicted Location:  -



__________________
Page 1 of 1  sorted by
 
Quick Reply

Please log in to post quick replies.



Create your own FREE Forum
Report Abuse
Powered by ActiveBoard